NANOSAT 1B

导读

NANOSAT 1B是由西班牙(ES)研制的一颗纳型卫星,于2009年7月29日08:00发射入轨。作为微纳卫星技术探索的早期实践,它承载着西班牙航天领域对小型卫星平台技术的验证任务,这类卫星凭借体积小、成本低的优势,为欧洲航天开展空间技术试验、低成本航天应用探索提供了重要载体,推动了微纳卫星技术的早期发展。

Basic Information
目录编号:
35685
目录名称:
NANOSAT 1B
国际标识:
2009-041E
轨道中心:
EARTH
卫星名称:
NANOSAT 1B
卫星全名:
--
卫星状态:
在轨 (已飞行6247 天)
发射日期:
2009-07-29 UTC
国别 :
西班牙 (ES)
星等 :
--
Orbit Information
数据来源 国际轨道数据
星历时间: 2026-09-05T12:01:28+0800
7小时前
查看轨道信息
半长轴: 6965.85km
偏心率: 0.0047824
轨道倾角: 98.125°
近地点辐角 260.837°
升交点赤经 9.425°
平近点角 98.743°
近地点: 554.399km
远地点: 621.027km
周期: 96.432分钟
每日圈数: 14.932812
Detailed Information
使用方式:
暂无
2D Orbit Map
3D Orbit Map
Orbit Altitude Analysis Chart
Orbit Inclination Analysis Chart
Orbit Comprehensive Analysis Chart
View Comprehensive Chart
Conjunction Data List
Event ID Objects TCA Miss Dist (km) Collision Risk Probability Collision Risk Index (CRI) Action
CDM_260908-034703-568506-363021
KORSAT-3 (63630)
2026-09-08T
03:47:42+0000
1.759 km
极远距离
3.602828E-6 低风险 0.46
CDM_260906-192600-493803-568524
2026-09-06T
19:26:14+0000
2.108 km
极远距离
2.539415E-6 低风险 0.43
CDM_260905-230703-568506-479122
2026-09-05T
23:07:09+0000
2.189 km
极远距离
1.230637E-6 低风险 0.37